Weather Roundup
Issued by NWS

Home | Current Version | Previous Version | Graphics & Text | Print | Product List | Glossary Off
Versions: 1 2 3 4 5 6 7 8 9 10 11 12 13 14 15 16 17 18 19 20 21 22 23 24 25 26 27 28 29 30 31 32 33 34 35 36 37 38 39 40 41 42 43 44 45 46 47 48 49 50

272
NZUS93 KARX 210259
HRRWXR

CURRENT HOURLY OBSERVATIONS ACROSS
MUCH OF THE UPPER MISSISSIPPI VALLEY
NATIONAL WEATHER SERVICE LA CROSSE WI
900 PM CST FRI JAN 20 2017


...SOUTHEAST MINNESOTA...


CITY           SKY/WX    TMP DP  RH WIND       PRES   REMARKS
ROCHESTER      FOG       33  33 100 SE8       29.56S VSB 1/2 WCI  26
ROCHESTER/MAYO CLOUDY    35  35 100 E7        29.56F WCI  29
WINONA         CLOUDY    34  34 100 SE3       29.60F FOG
AUSTIN         FOG       34  34 100 SE6       29.54F VSB 1   WCI  29
ALBERT LEA     FOG       34  34 100 SE8       29.53S VSB 1/4 WCI  27
DODGE CENTER   FOG       34  34 100 CALM      29.54F VSB 3/4
PRESTON        FOG       33  33  97 SE5       29.57S VSB 1/4 WCI  29
OWATONNA       CLOUDY    36  34  93 SE5       29.54F FOG     WCI  32
FARIBAULT      CLOUDY    36  34  93 SE7       29.55F FOG     WCI  30
$$

...ELSEWHERE IN MINNESOTA...


CITY           SKY/WX    TMP DP  RH WIND       PRES   REMARKS
MINNEAPOLIS    FOG       35  33  92 SE7       29.57R VSB 3/4 WCI  29
INTNL FALLS    LGT RAIN  35  33  92 SE12      29.55F WCI  27
DULUTH         FOG       35  34  96 E9        29.56F VSB 1/4 WCI  28
RED WING       FOG       36  34  93 SE7       29.58S VSB 3/4 WCI  30
REDWOOD FALLS  FOG       35  33  92 SE10      29.50F VSB 1   WCI  27
MANKATO        MIX PCPN  34  33  96 SE10      29.53F FOG     WCI  26
WORTHINGTON    FOG       34  34 100 E8        29.46F VSB 1/2 WCI  27
FAIRMONT       LGT RAIN  34  34 100 SE7       29.51F VSB 3/4 WCI  28
$$

...SOUTHWEST WISCONSIN...


CITY           SKY/WX    TMP DP  RH WIND       PRES   REMARKS
LA CROSSE      CLOUDY    40  36  86 E5        29.60F
PRAIRIE DU CHI FOG       37  36  96 E3        29.60R VSB 3/4
BOSCOBEL       FOG       37  36  96 CALM      29.62S VSB 1/4
LONE ROCK      FOG       37  36  96 E7        29.62F VSB 1   WCI  32
PLATTEVILLE    CLOUDY    36  36 100 E8        29.60S VSB 1/4 WCI  29
FORT MC COY    CLOUDY    34  34 100 E3        29.62S FOG
CAMP DOUGLAS   CLOUDY    34  34 100 E7        29.62S FOG     WCI  28
MAUSTON-NEW LI FOG       35  35  99 SE3       29.62R VSB 1
VIROQUA        CLOUDY    34  34 100 E6        29.58F VSB 1/4 WCI  29
WIS DELLS      CLOUDY    36  35  99 SE3       29.62S FOG
$$

...ELSEWHERE IN WISCONSIN...


CITY           SKY/WX    TMP DP  RH WIND       PRES   REMARKS
MILWAUKEE      FOG       37  36  96 E3        29.66F VSB 1/4
MADISON        DRIZZLE   36  36 100 E5        29.63F FOG     WCI  32
GREEN BAY      CLOUDY    35  35 100 NE5       29.68R FOG     WCI  31
EAU CLAIRE     NOT AVBL
BLACK RVR FLS  CLOUDY    36  36 100 CALM      29.61S FOG
MEDFORD        CLOUDY    32  32  99 SE8       29.60S FOG     WCI  25
WAUSAU         CLOUDY    33  33 100 SE8       29.62S FOG     WCI  26
WIS RAPIDS     CLOUDY    34  34 100 SE6       29.64S FOG     WCI  29
MARSHFIELD     CLOUDY    33  32  96 SE8       29.61R FOG     WCI  26
RICE LAKE      FOG       34  34  99 SE8       29.59F VSB 3/4 WCI  28
$$

...NORTHEAST IOWA...


CITY           SKY/WX    TMP DP  RH WIND       PRES   REMARKS
WATERLOO       FOG       37  37 100 SE10      29.55S VSB 1/2 WCI  30
DUBUQUE        FOG       37  37 100 E3        29.59R VSB 1/4
DECORAH        FOG       36  36 100 SE6       29.57R VSB<1/4 WCI  31
MASON CITY     FOG       34  34 100 E8        29.54F VSB 1/4 WCI  27
CHARLES CITY   FOG       36  36 100 SE9       29.55S VSB<1/4 WCI  29
OELWEIN        FOG       36  36 100 E13       29.56F VSB 1/4 WCI  27
$$

...ELSEWHERE IN IOWA...


CITY           SKY/WX    TMP DP  RH WIND       PRES   REMARKS
DES MOINES     DRZL/FOG  41  40  96 E9        29.49F VSB 1/2
IOWA CITY      FOG       42  41  96 E3        29.57F VSB 1/2
FORT DODGE     CLOUDY    36  34  93 E7        29.51F VSB 1/2 WCI  30
MARSHALLTOWN   FOG       37  37 100 E8        29.53R VSB 1/4 WCI  31
CEDAR RAPIDS   FOG       38  38 100 E7        29.55F VSB 1/2 WCI  33
$$

...NORTHERN ILLINOIS...


CITY           SKY/WX    TMP DP  RH WIND       PRES   REMARKS
CHICAGO-OHARE  DRZL/FOG  42  41  96 NE3       29.64F VSB 1/2
CHICAGO-MIDWAY CLOUDY    42  40  92 SE3       29.65S FOG
MOLINE         FOG       42  40  92 E5        29.58R VSB 1/4
ROCKFORD       FOG       40  39  97 SE5       29.63F VSB 1/4
PEORIA         CLOUDY    48  48 100 S5        29.61R FOG
$$

NOTE: "FAIR" INDICATES FEW OR NO CLOUDS BELOW 12,000 FEET WITH NO
SIGNIFICANT WEATHER AND/OR OBSTRUCTIONS TO VISIBILITY. WIND
SPEEDS ARE IN MILES-PER-HOUR.




USA.gov is the U.S. government's official web portal to all federal, state and local government web resources and services.